Weather History for GMMX - March, 2013

Change the Weather History Date:

Friday, March 1, 2013

  Actual Average Record
Temperature  
Mean Temperature 55 °F -  
Max Temperature 71 °F 73 °F 82 °F (1997)
Min Temperature 39 °F 50 °F 39 °F (2013)
Degree Days  
Heating Degree Days 10    
Growing Degree Days 5 (Base 50)    
Moisture  
Dew Point 37 °F    
Average Humidity 52    
Maximum Humidity 93    
Minimum Humidity 17    
Precipitation  
Precipitation 0.00 in 0.05 in - ()
Sea Level Pressure  
Sea Level Pressure 29.96 in    
Wind  
Wind Speed 7 mph ()    
Max Wind Speed 14 mph    
Max Gust Speed -    
Visibility 6.1 miles    
Events      
Averages and records for this station are not official NWS values.
T = Trace of Precipitation, MM = Missing Value Source: Averaged Metar Reports

Daily Weather History Graph

Daily Weather History Graph

Search for Another Location

Airport or City:

Trip Planner

Search our weather history database for the weather conditions in past years. The results will help you decide how hot, cold, wet, or windy it might be!

Date:

Astronomy

Mar. 01, 2013 Rise Set
Actual Time 6:59 AM WET 6:30 PM WET
Civil Twilight 6:34 AM WET 6:54 PM WET
Nautical Twilight 6:06 AM WET 7:22 PM WET
Astronomical Twilight 5:38 AM WET 7:51 PM WET
Moon 10:28 PM WET 8:54 AM WET
Length of Visible Light 12h 20m
Length of Day
11h 31m
Waning Gibbous, 85% of the Moon is Illuminated
Mar 1
Waning Gibbous
Mar 4
Last Quarter
Mar 11
New
Mar 19
First Quarter
Mar 27
Full

Hourly Weather History & Observations

Time (WET) Temp. Windchill Dew Point Humidity Pressure Visibility Wind Dir Wind Speed Gust Speed Precip Events Conditions
12:00 AM 48 °F - 37 °F 54% 30.08 in 6 mi ENE 6.9 mph - -   Partly Cloudy
12:00 AM 48.2 °F - 37.4 °F 66% 30.06 in 6.2 mi ENE 6.9 mph - N/A   Scattered Clouds
3:00 AM 43 °F - 38 °F 76% 30.04 in 6 mi ENE 4.6 mph - -   Scattered Clouds
3:30 AM 42.8 °F 40.1 °F 37.4 °F 81% 30.01 in - East 4.6 mph - N/A   Clear
4:00 AM 42.8 °F 41.1 °F 37.4 °F 81% 30.01 in - East 3.5 mph - N/A   Clear
4:30 AM 42.8 °F 41.1 °F 37.4 °F 81% 30.01 in 6.2 mi East 3.5 mph - N/A   Partly Cloudy
5:00 AM 41.0 °F 37.1 °F 37.4 °F 87% 30.01 in 6.2 mi East 5.8 mph - N/A   Partly Cloudy
5:30 AM 41.0 °F 37.1 °F 37.4 °F 87% 30.01 in 6.2 mi East 5.8 mph - N/A   Partly Cloudy
6:00 AM 41 °F - 38 °F 84% 30.07 in 6 mi ESE 5.8 mph - -   Scattered Clouds
6:00 AM 41.0 °F 36.4 °F 37.4 °F 87% 30.01 in 6.2 mi ESE 6.9 mph - N/A   Partly Cloudy
6:30 AM 39.2 °F 35.0 °F 37.4 °F 93% 30.04 in - East 5.8 mph - N/A   Clear
7:00 AM 39.2 °F 34.2 °F 37.4 °F 93% 30.04 in - East 6.9 mph - N/A   Clear
7:30 AM 41.0 °F 35.8 °F 37.4 °F 87% 30.04 in - East 8.1 mph - N/A   Clear
8:00 AM 44.6 °F 39.7 °F 39.2 °F 81% 30.04 in - East 9.2 mph - N/A   Clear
8:30 AM 48.2 °F - 41.0 °F 76% 30.04 in 6.2 mi East 9.2 mph - N/A   Partly Cloudy
9:00 AM 50 °F - 40 °F 60% 30.04 in 6 mi East 11.5 mph - -   Scattered Clouds
9:00 AM 50.0 °F - 41.0 °F 71% 30.01 in 6.2 mi East 11.5 mph - N/A   Partly Cloudy
9:30 AM 51.8 °F - 41.0 °F 67% 30.04 in 6.2 mi East 11.5 mph - N/A   Partly Cloudy
10:00 AM 55.4 °F - 41.0 °F 58% 30.01 in 6.2 mi East 13.8 mph - N/A   Partly Cloudy
10:30 AM 55.4 °F - 41.0 °F 58% 30.01 in 6.2 mi East 11.5 mph - N/A   Scattered Clouds
11:00 AM 59.0 °F - 41.0 °F 51% 29.98 in 6.2 mi East 9.2 mph - N/A   Scattered Clouds
11:30 AM 60.8 °F - 41.0 °F 48% 29.98 in 6.2 mi East 11.5 mph - N/A   Scattered Clouds
12:00 PM 63 °F - 39 °F 29% 29.93 in 6 mi East 11.5 mph - -   Scattered Clouds
12:00 PM 62.6 °F - 37.4 °F 39% 29.95 in 6.2 mi East 11.5 mph - N/A   Scattered Clouds
12:30 PM 62.6 °F - 37.4 °F 39% 29.95 in 6.2 mi ENE 10.4 mph - N/A   Scattered Clouds
1:00 PM 66.2 °F - 37.4 °F 35% 29.95 in 6.2 mi NE 9.2 mph - N/A   Scattered Clouds
1:30 PM 68.0 °F - 35.6 °F 30% 29.92 in 6.2 mi ENE 8.1 mph - N/A   Scattered Clouds
2:00 PM 69.8 °F - 33.8 °F 27% 29.92 in 6.2 mi East 8.1 mph - N/A   Scattered Clouds
2:30 PM 69.8 °F - 32.0 °F 25% 29.92 in 6.2 mi ENE 9.2 mph - N/A   Scattered Clouds
3:00 PM 71 °F - 35 °F 17% 29.85 in 6 mi East 6.9 mph - -   Scattered Clouds
3:00 PM 71.6 °F - 35.6 °F 27% 29.89 in 6.2 mi East 6.9 mph - N/A   Scattered Clouds
3:30 PM 69.8 °F - 35.6 °F 28% 29.89 in 6.2 mi East 8.1 mph - N/A   Scattered Clouds
4:00 PM 69.8 °F - 35.6 °F 28% 29.89 in 6.2 mi East 8.1 mph - N/A   Scattered Clouds
4:30 PM 71.6 °F - 33.8 °F 25% 29.89 in 6.2 mi ENE 6.9 mph - N/A   Scattered Clouds
5:00 PM 71.6 °F - 33.8 °F 25% 29.89 in 6.2 mi ENE 6.9 mph - N/A   Scattered Clouds
5:30 PM 69.8 °F - 33.8 °F 27% 29.89 in 6.2 mi East 8.1 mph - N/A   Scattered Clouds
6:00 PM 66 °F - 34 °F 19% 29.86 in 6 mi East 6.9 mph - -   Clear
6:00 PM 66.2 °F - 33.8 °F 30% 29.89 in - East 6.9 mph - N/A   Clear
6:30 PM 64.4 °F - 33.8 °F 32% 29.89 in - East 6.9 mph - N/A   Clear
7:00 PM 60.8 °F - 35.6 °F 39% 29.89 in - ENE 4.6 mph - N/A   Clear
7:30 PM 60.8 °F - 33.8 °F 36% 29.92 in - ENE 8.1 mph - N/A   Clear
8:00 PM 59.0 °F - 33.8 °F 39% 29.92 in - ENE 5.8 mph - N/A   Clear
8:30 PM 57.2 °F - 35.6 °F 44% 29.92 in - East 6.9 mph - N/A   Clear
9:00 PM 56 °F - 37 °F 36% 29.89 in 6 mi East 8.1 mph - -   Clear
9:00 PM 55.4 °F - 37.4 °F 51% 29.89 in - East 9.2 mph - N/A   Clear
9:30 PM 55.4 °F - 35.6 °F 47% 29.89 in - East 8.1 mph - N/A   Clear
10:00 PM 55.4 °F - 35.6 °F 47% 29.89 in - NNE 4.6 mph - N/A   Clear
10:30 PM 53.6 °F - 35.6 °F 51% 29.89 in - East 3.5 mph - N/A   Clear
11:00 PM 51.8 °F - 35.6 °F 54% 29.89 in - ESE 3.5 mph - N/A   Clear
11:30 PM 51.8 °F - 35.6 °F 54% 29.89 in - East 2.3 mph - N/A   Clear